Time,TemperatureF,DewpointF,PressureIn,WindDirection,WindDirectionDegrees,WindSpeedMPH,WindSpeedGustMPH,Humidity,HourlyPrecipIn,Conditions,Clouds,dailyrainin,SoftwareType,DateUTC
2013-06-05 00:02:00,55.0,50.0,-100.00,East,90,4.0,9.0,83,0.00,,,0.00,,2013-06-05 05:02:00,
2013-06-05 00:12:00,55.0,50.0,-100.00,ESE,115,4.0,10.0,83,0.00,,,0.00,,2013-06-05 05:12:00,
2013-06-05 00:22:00,55.0,50.0,-100.00,SE,140,5.0,10.0,83,0.00,,,0.00,,2013-06-05 05:22:00,
2013-06-05 00:32:00,55.0,50.0,-100.00,SE,125,6.0,13.0,83,0.00,,,0.00,,2013-06-05 05:32:00,
2013-06-05 00:42:00,55.0,50.0,-100.00,SE,130,6.0,12.0,83,0.00,,,0.00,,2013-06-05 05:42:00,
2013-06-05 00:52:00,55.0,50.0,-100.00,SE,125,6.0,10.0,83,0.00,,,0.00,,2013-06-05 05:52:00,
2013-06-05 01:02:00,55.0,50.0,-100.00,SSE,150,6.0,9.0,83,0.00,,,0.00,,2013-06-05 06:02:00,
2013-06-05 01:12:00,55.0,50.0,-100.00,SSE,155,6.0,9.0,83,0.00,,,0.00,,2013-06-05 06:12:00,
2013-06-05 01:22:00,55.0,50.0,-100.00,SE,135,6.0,8.0,84,0.00,,,0.00,,2013-06-05 06:22:00,
2013-06-05 01:32:00,55.0,52.0,-100.00,SE,135,5.0,9.0,84,0.00,,,0.00,,2013-06-05 06:32:00,
2013-06-05 01:42:00,55.0,52.0,-100.00,South,175,4.0,9.0,85,0.00,,,0.00,,2013-06-05 06:42:00,
2013-06-05 01:52:00,55.0,52.0,-100.00,SSE,150,7.0,11.0,87,0.00,,,0.00,,2013-06-05 06:52:00,
2013-06-05 02:02:00,55.0,52.0,-100.00,SSE,150,4.0,6.0,87,0.00,,,0.00,,2013-06-05 07:02:00,
2013-06-05 02:12:00,55.0,52.0,-100.00,South,170,4.0,8.0,87,0.00,,,0.00,,2013-06-05 07:12:00,
2013-06-05 02:22:00,55.0,52.0,-100.00,South,170,6.0,9.0,87,0.00,,,0.00,,2013-06-05 07:22:00,
2013-06-05 02:32:00,55.0,52.0,-100.00,South,180,6.0,9.0,87,0.00,,,0.00,,2013-06-05 07:32:00,
2013-06-05 02:42:00,55.0,52.0,-100.00,SSE,165,6.0,9.0,87,0.00,,,0.00,,2013-06-05 07:42:00,
2013-06-05 02:52:00,56.0,52.0,-100.00,South,175,4.0,8.0,87,0.00,,,0.00,,2013-06-05 07:52:00,
2013-06-05 03:02:00,56.0,52.0,-100.00,SSE,155,4.0,7.0,87,0.00,,,0.00,,2013-06-05 08:02:00,
2013-06-05 03:12:00,55.0,52.0,-100.00,SSE,150,6.0,9.0,87,0.00,,,0.00,,2013-06-05 08:12:00,
2013-06-05 03:22:00,55.0,52.0,-100.00,South,170,6.0,12.0,88,0.00,,,0.00,,2013-06-05 08:22:00,
2013-06-05 03:32:00,55.0,54.0,-100.00,South,175,6.0,8.0,91,0.00,,,0.00,,2013-06-05 08:32:00,
2013-06-05 03:42:00,55.0,54.0,-100.00,SE,135,5.0,8.0,93,0.00,,,0.00,,2013-06-05 08:42:00,
2013-06-05 03:52:00,54.0,54.0,-100.00,South,185,3.0,6.0,95,0.00,,,0.00,,2013-06-05 08:52:00,
2013-06-05 04:02:00,54.0,54.0,-100.00,SSE,165,4.0,6.0,96,0.00,,,0.00,,2013-06-05 09:02:00,
2013-06-05 04:12:00,54.0,54.0,-100.00,SE,145,2.0,6.0,97,0.00,,,0.00,,2013-06-05 09:12:00,
2013-06-05 04:22:00,54.0,54.0,-100.00,South,190,3.0,6.0,98,0.00,,,0.00,,2013-06-05 09:22:00,
2013-06-05 04:32:00,54.0,54.0,-100.00,SSE,155,4.0,6.0,99,0.00,,,0.00,,2013-06-05 09:32:00,
2013-06-05 04:42:00,54.0,54.0,-100.00,SE,135,4.0,7.0,99,0.00,,,0.00,,2013-06-05 09:42:00,
2013-06-05 04:52:00,54.0,54.0,-100.00,SE,130,4.0,7.0,99,0.00,,,0.00,,2013-06-05 09:52:00,
2013-06-05 05:03:00,54.0,54.0,-100.00,SE,130,4.0,7.0,99,0.00,,,0.00,,2013-06-05 10:03:00,
2013-06-05 08:02:00,55.0,55.0,-100.00,SW,215,1.0,4.0,99,0.00,,,0.00,,2013-06-05 13:02:00,
2013-06-05 08:12:00,55.0,55.0,-100.00,ENE,75,1.0,4.0,99,0.00,,,0.00,,2013-06-05 13:12:00,
2013-06-05 08:22:00,56.0,55.0,-100.00,ESE,115,1.0,5.0,99,0.00,,,0.00,,2013-06-05 13:22:00,
2013-06-05 08:32:00,56.0,55.0,-100.00,ESE,115,1.0,4.0,99,0.00,,,0.00,,2013-06-05 13:32:00,
2013-06-05 08:42:00,55.0,55.0,-100.00,SE,130,1.0,4.0,99,0.00,,,0.00,,2013-06-05 13:42:00,
2013-06-05 08:52:00,56.0,55.0,-100.00,South,175,2.0,5.0,99,0.00,,,0.00,,2013-06-05 13:52:00,
2013-06-05 09:02:00,56.0,55.0,-100.00,SSW,200,2.0,6.0,99,0.00,,,0.00,,2013-06-05 14:02:00,
2013-06-05 09:12:00,56.0,55.0,-100.00,SE,135,3.0,6.0,99,0.00,,,0.00,,2013-06-05 14:12:00,
2013-06-05 09:22:00,56.0,55.0,-100.00,SSE,150,4.0,7.0,99,0.00,,,0.00,,2013-06-05 14:22:00,
2013-06-05 09:32:00,56.0,55.0,-100.00,South,170,4.0,8.0,99,0.00,,,0.00,,2013-06-05 14:32:00,
2013-06-05 09:42:00,56.0,55.0,-100.00,ESE,120,4.0,7.0,99,0.00,,,0.00,,2013-06-05 14:42:00,
2013-06-05 09:52:00,56.0,55.0,-100.00,SE,140,4.0,6.0,99,0.00,,,0.00,,2013-06-05 14:52:00,
2013-06-05 10:02:00,56.0,55.0,-100.00,SE,130,2.0,7.0,99,0.00,,,0.00,,2013-06-05 15:02:00,
2013-06-05 10:12:00,56.0,55.0,-100.00,ESE,110,4.0,7.0,99,0.00,,,0.00,,2013-06-05 15:12:00,
2013-06-05 10:33:00,56.0,55.0,-100.00,SE,140,4.0,7.0,99,0.00,,,0.00,,2013-06-05 15:33:00,
2013-06-05 10:42:00,56.0,55.0,-100.00,SE,140,4.0,8.0,99,0.00,,,0.00,,2013-06-05 15:42:00,
2013-06-05 10:53:00,56.0,55.0,-100.00,ESE,105,3.0,7.0,99,0.00,,,0.00,,2013-06-05 15:53:00,
2013-06-05 11:03:00,56.0,55.0,-100.00,ESE,110,2.0,6.0,99,0.00,,,0.00,,2013-06-05 16:03:00,
2013-06-05 11:12:00,56.0,55.0,-100.00,SE,130,4.0,7.0,99,0.00,,,0.00,,2013-06-05 16:12:00,
2013-06-05 11:22:00,56.0,55.0,-100.00,SE,145,6.0,9.0,99,0.00,,,0.00,,2013-06-05 16:22:00,
2013-06-05 11:53:00,57.0,57.0,-100.00,SSE,150,2.0,9.0,99,0.00,,,0.00,,2013-06-05 16:53:00,
2013-06-05 12:12:00,58.0,57.0,-100.00,SE,145,4.0,6.0,98,0.00,,,0.00,,2013-06-05 17:12:00,
2013-06-05 12:22:00,57.0,57.0,-100.00,SE,145,4.0,10.0,97,0.00,,,0.00,,2013-06-05 17:22:00,
2013-06-05 12:32:00,58.0,57.0,-100.00,South,170,4.0,9.0,97,0.00,,,0.00,,2013-06-05 17:32:00,
2013-06-05 12:42:00,58.0,57.0,-100.00,South,170,4.0,9.0,96,0.00,,,0.00,,2013-06-05 17:42:00,
2013-06-05 12:52:00,58.0,57.0,-100.00,SSW,195,2.0,6.0,96,0.00,,,0.00,,2013-06-05 17:52:00,
2013-06-05 13:02:00,58.0,57.0,-100.00,South,185,2.0,6.0,95,0.00,,,0.00,,2013-06-05 18:02:00,
2013-06-05 13:12:00,58.0,57.0,-100.00,SSE,150,4.0,6.0,95,0.00,,,0.00,,2013-06-05 18:12:00,
2013-06-05 13:22:00,59.0,57.0,-100.00,SE,135,1.0,4.0,94,0.00,,,0.00,,2013-06-05 18:22:00,
2013-06-05 13:32:00,59.0,57.0,-100.00,NE,40,1.0,4.0,93,0.00,,,0.00,,2013-06-05 18:32:00,
2013-06-05 13:42:00,59.0,57.0,-100.00,East,85,1.0,6.0,93,0.00,,,0.00,,2013-06-05 18:42:00,
2013-06-05 13:52:00,59.0,57.0,-100.00,South,170,3.0,5.0,92,0.00,,,0.00,,2013-06-05 18:52:00,
2013-06-05 14:02:00,59.0,57.0,-100.00,SSW,195,1.0,4.0,92,0.00,,,0.00,,2013-06-05 19:02:00,
2013-06-05 14:12:00,59.0,57.0,-100.00,SE,135,3.0,5.0,92,0.00,,,0.00,,2013-06-05 19:12:00,
2013-06-05 14:23:00,60.0,57.0,-100.00,SE,135,1.0,6.0,91,0.00,,,0.00,,2013-06-05 19:23:00,
2013-06-05 14:32:00,60.0,57.0,-100.00,SE,125,1.0,4.0,91,0.00,,,0.00,,2013-06-05 19:32:00,
2013-06-05 14:42:00,60.0,57.0,-100.00,SSE,165,1.0,2.0,90,0.00,,,0.00,,2013-06-05 19:42:00,
2013-06-05 14:52:00,61.0,57.0,-100.00,SW,230,0.0,4.0,87,0.00,,,0.00,,2013-06-05 19:52:00,
2013-06-05 15:02:00,61.0,57.0,-100.00,NW,305,1.0,4.0,86,0.00,,,0.00,,2013-06-05 20:02:00,
2013-06-05 15:12:00,61.0,57.0,-100.00,WNW,295,0.0,4.0,85,0.00,,,0.00,,2013-06-05 20:12:00,
2013-06-05 15:22:00,63.0,57.0,-100.00,ESE,120,3.0,6.0,83,0.00,,,0.00,,2013-06-05 20:22:00,
2013-06-05 15:32:00,63.0,57.0,-100.00,ENE,60,5.0,9.0,82,0.00,,,0.00,,2013-06-05 20:32:00,
2013-06-05 15:42:00,63.0,57.0,-100.00,ENE,65,2.0,6.0,82,0.00,,,0.00,,2013-06-05 20:42:00,
2013-06-05 15:52:00,62.0,57.0,-100.00,NNE,15,2.0,6.0,83,0.00,,,0.00,,2013-06-05 20:52:00,
2013-06-05 16:02:00,63.0,57.0,-100.00,NNE,20,3.0,9.0,83,0.00,,,0.00,,2013-06-05 21:02:00,
2013-06-05 16:12:00,62.0,57.0,-100.00,NNE,30,4.0,8.0,83,0.00,,,0.00,,2013-06-05 21:12:00,
2013-06-05 16:22:00,61.0,57.0,-100.00,NW,305,1.0,7.0,87,0.00,,,0.00,,2013-06-05 21:22:00,
2013-06-05 16:33:00,60.0,57.0,-100.00,NNE,20,1.0,5.0,92,0.00,,,0.00,,2013-06-05 21:33:00,
2013-06-05 16:43:00,59.0,57.0,-100.00,NW,325,1.0,4.0,94,0.00,,,0.00,,2013-06-05 21:43:00,
2013-06-05 16:53:00,59.0,57.0,-100.00,NNW,340,1.0,3.0,96,0.00,,,0.00,,2013-06-05 21:53:00,
2013-06-05 17:32:00,58.0,57.0,-100.00,NE,35,4.0,8.0,98,0.00,,,0.00,,2013-06-05 22:32:00,
2013-06-05 17:42:00,58.0,57.0,-100.00,NNE,25,4.0,6.0,98,0.00,,,0.00,,2013-06-05 22:42:00,
2013-06-05 17:52:00,58.0,57.0,-100.00,North,5,2.0,6.0,98,0.00,,,0.00,,2013-06-05 22:52:00,
2013-06-05 18:02:00,58.0,57.0,-100.00,North,5,4.0,6.0,98,0.00,,,0.00,,2013-06-05 23:02:00,
2013-06-05 18:12:00,58.0,57.0,-100.00,NNE,30,4.0,6.0,98,0.00,,,0.00,,2013-06-05 23:12:00,
2013-06-05 18:22:00,58.0,57.0,-100.00,NNE,25,4.0,7.0,98,0.00,,,0.00,,2013-06-05 23:22:00,
2013-06-05 18:32:00,58.0,57.0,-100.00,North,0,2.0,6.0,98,0.00,,,0.00,,2013-06-05 23:32:00,
2013-06-05 18:42:00,58.0,57.0,-100.00,NNE,25,4.0,8.0,98,0.00,,,0.00,,2013-06-05 23:42:00,
2013-06-05 18:53:00,58.0,57.0,-100.00,North,355,2.0,7.0,98,0.00,,,0.00,,2013-06-05 23:53:00,
2013-06-05 19:02:00,57.0,57.0,-100.00,NE,45,3.0,6.0,98,0.00,,,0.00,,2013-06-06 00:02:00,
2013-06-05 19:12:00,57.0,57.0,-100.00,NE,45,2.0,8.0,98,0.00,,,0.00,,2013-06-06 00:12:00,
2013-06-05 19:22:00,57.0,57.0,-100.00,NNE,15,2.0,7.0,98,0.00,,,0.00,,2013-06-06 00:22:00,
2013-06-05 19:32:00,58.0,57.0,-100.00,ESE,110,1.0,4.0,98,0.00,,,0.00,,2013-06-06 00:32:00,
2013-06-05 19:42:00,58.0,57.0,-100.00,NE,50,2.0,6.0,98,0.00,,,0.00,,2013-06-06 00:42:00,
2013-06-05 19:52:00,57.0,57.0,-100.00,ENE,65,1.0,4.0,98,0.00,,,0.00,,2013-06-06 00:52:00,
2013-06-05 20:02:00,57.0,57.0,-100.00,North,10,2.0,4.0,98,0.00,,,0.00,,2013-06-06 01:02:00,
2013-06-05 20:12:00,57.0,57.0,-100.00,NNE,25,2.0,4.0,98,0.00,,,0.00,,2013-06-06 01:12:00,
2013-06-05 21:22:00,56.0,55.0,-100.00,North,10,2.0,5.0,98,0.00,,,0.00,,2013-06-06 02:22:00,
2013-06-05 21:32:00,56.0,55.0,-100.00,North,10,2.0,4.0,98,0.00,,,0.00,,2013-06-06 02:32:00,
2013-06-05 21:42:00,56.0,55.0,-100.00,North,10,2.0,4.0,98,0.00,,,0.00,,2013-06-06 02:42:00,
2013-06-05 21:52:00,56.0,55.0,-100.00,North,10,2.0,4.0,98,0.00,,,0.00,,2013-06-06 02:52:00,
2013-06-05 22:02:00,56.0,55.0,-100.00,NNE,20,3.0,4.0,98,0.00,,,0.00,,2013-06-06 03:02:00,
2013-06-05 22:12:00,56.0,55.0,-100.00,North,5,2.0,6.0,98,0.00,,,0.00,,2013-06-06 03:12:00,
2013-06-05 22:22:00,56.0,55.0,-100.00,NNE,20,2.0,6.0,98,0.00,,,0.00,,2013-06-06 03:22:00,
2013-06-05 22:33:00,56.0,55.0,-100.00,NNE,15,2.0,4.0,98,0.00,,,0.00,,2013-06-06 03:33:00,
2013-06-05 22:43:00,56.0,55.0,-100.00,North,5,2.0,5.0,98,0.00,,,0.00,,2013-06-06 03:43:00,
2013-06-05 22:52:00,56.0,55.0,-100.00,North,5,3.0,4.0,98,0.00,,,0.00,,2013-06-06 03:52:00,
2013-06-05 23:03:00,56.0,55.0,-100.00,North,10,3.0,6.0,98,0.00,,,0.00,,2013-06-06 04:03:00,
2013-06-05 23:13:00,56.0,55.0,-100.00,North,5,2.0,6.0,98,0.00,,,0.00,,2013-06-06 04:13:00,
2013-06-05 23:23:00,56.0,55.0,-100.00,NW,315,2.0,7.0,98,0.00,,,0.00,,2013-06-06 04:23:00,
2013-06-05 23:33:00,56.0,55.0,-100.00,North,5,1.0,6.0,98,0.00,,,0.00,,2013-06-06 04:33:00,
2013-06-05 23:53:00,54.0,54.0,-100.00,North,0,5.0,9.0,98,0.00,,,0.00,,2013-06-06 04:53:00,